SL-14 DEB, 45296

Orbit data source: Space-Track

SL-14 DEB, 45296 is space debris in LEO originally from a launch on Thu, 15 Aug 1991 UTC launched from the Plesetsk Missile And Space Complex (PKMTR). Debris objects in space refer to the collection of defunct objects orbiting the Earth. Examples of debris include non-operational satellites, rocket bodies, and fragments generated from explosions, collisions, or faulty payload assembly.

Loading next visibility...
Identifier
45296, 1991-056AJ
Orbit
LEO
Last TLE update
15 hours ago
Origin
Manufacturer
Unknown
Mission
Spacecraft
Bus & Motor
Unknown
Mass
Unknown
Launch date (UTC)
1991-08-15 (34 years ago)
Launch vehicle
Unknown
Launch site
Plesetsk Missile And Space Complex (PKMTR)
Object type
Payload
Rocket body
Debris
Shape & HBR
Unknown
Radar Cross Section
Small (<0.1 m²)

Expand to show TLE details & history

TLE from 15 hours ago
0 SL-14 DEB
1 45296U 91056AJ  25181.74419848  .00004723  00000-0  41023-2 0  9997
2 45296  82.6360 290.8001 0215279 173.8922 186.4941 13.75893901265878
Epoch: 2025-06-30T17:51Z
TLE epoch observation values (Epoch: 2025-06-30T17:51:38.748Z)
Latitude
-0°
Longitude
103.83904°
Altitude
1,138.811 km
Speed
7.205 km/s
True Right ascension
19h 23m 12s
True Declination
0° 00' 00"
Sunlit
Object was in full shadow at epoch
Visualization orbit readout
Latitude
-45.00691°
Longitude
-69.25834°
Altitude
898.492 km
Speed
7.451 km/s
Apparent Right ascension
08h 11m 05s
Apparent Declination
-42° 34' 06"
Sunlit
Object is in daylight
Visualization observer readout
Local Sidereal Time
20:32:25
Azimuth
125.221° SE
Elevation
-85.194°
Doppler factor
1
Orbital elements
Apogee altitude
1,133.956 km
Perigee altitude
817.333 km
Semi-major axis
7,353.781 km
Eccentricity
0.02153
Inclination
82.636°
RAAN
290.8001°
Arg. of periapsis
173.8922°
True anomaly
Unknown
Mean anomaly
186.4941°
Eccentric anomaly
Unknown
Mean motion
3.44173 °/min
Orbital period
104.6 mins
BSTAR
0.0041023
Loading maneuver chart data...
Loading SW <> Apogee altitude chart data...
Loading historical data...
Loading historical data...
Loading historical data...
Loading historical data...
Loading historical data...
Loading historical data...
Loading historical data...

SL-14 DEB Visibility forecast

Observer location: undefined°, undefined°

Span
Click to sort rows by Start time (UTC) header in descending order
Start Az.
Max El. time (UTC)
Max El. Az.
Max El.
End time (UTC)
End Az.
7 mins2025-07-01 09:44:13.301Z259.835° W2025-07-01 09:47:13.301Z287.852° WNW15.937°2025-07-01 09:51:13.301Z326.911° NNW
9 mins2025-07-01 18:54:13.301Z1.765° NNE2025-07-01 18:58:13.301Z66.239° ENE41.843°2025-07-01 19:03:13.301Z161.042° S
8 mins2025-07-02 06:39:13.301Z123.102° SE2025-07-02 06:43:13.301Z79.379° E21.258°2025-07-02 06:47:13.301Z39.21° NE
11 mins2025-07-02 08:22:13.301Z204.674° SW2025-07-02 08:28:13.301Z295.022° NW39.97°2025-07-02 08:33:13.301Z356.479° N
|